Location: East Horndon
(51.5667°N, 0.3500°E)
Time: 00:15:00
(UTC+00:00)

ADEOS Rocket - Pass Details

Date: 08 November 2025
Orbit: 858 x 1304 km, 98.7° (Epoch: 04 December)

Event Time Altitude Azimuth Distance (km) Brightness Sun altitude
Rises 02:30:38 0° 20° (NNE) 3,752 6.6 -41.8°
Reaches altitude 10° 02:33:15 10° 28° (NNE) 2,860 5.9 -41.4°
Enters shadow 02:38:46 38° 86° (E) 1,639 4.4 -40.7°
